TimeCDT,TemperatureF,Dew PointF,Humidity,Sea Level PressureIn,VisibilityMPH,Wind Direction,Wind SpeedMPH,Gust SpeedMPH,PrecipitationIn,Events,Conditions,WindDirDegrees,DateUTC
12:53 AM,63.0,61.0,93,30.08,10.0,NNE,3.5,-,N/A,,Clear,30,2012-09-11 05:53:00
1:53 AM,63.0,61.0,93,30.07,10.0,Calm,Calm,-,N/A,,Clear,0,2012-09-11 06:53:00
2:29 AM,62.6,60.8,94,30.06,1.8,Calm,Calm,-,N/A,,Clear,0,2012-09-11 07:29:00
2:38 AM,62.6,60.8,94,30.06,3.0,Calm,Calm,-,N/A,,Clear,0,2012-09-11 07:38:00
2:53 AM,62.1,60.1,93,30.07,10.0,Calm,Calm,-,N/A,,Clear,0,2012-09-11 07:53:00
3:06 AM,62.6,60.8,94,30.06,1.5,Calm,Calm,-,N/A,,Clear,0,2012-09-11 08:06:00
3:19 AM,62.6,60.8,94,30.06,4.0,Calm,Calm,-,N/A,,Clear,0,2012-09-11 08:19:00
3:43 AM,60.8,60.8,100,30.06,2.5,Calm,Calm,-,N/A,,Clear,0,2012-09-11 08:43:00
3:50 AM,60.8,60.8,100,30.06,7.0,Calm,Calm,-,N/A,,Clear,0,2012-09-11 08:50:00
3:53 AM,62.1,60.1,93,30.07,8.0,Calm,Calm,-,N/A,,Clear,0,2012-09-11 08:53:00
4:19 AM,60.8,59.0,94,30.06,1.8,Calm,Calm,-,N/A,,Clear,0,2012-09-11 09:19:00
4:27 AM,60.8,60.8,100,30.07,0.5,Calm,Calm,-,N/A,Fog,Fog,0,2012-09-11 09:27:00
4:38 AM,60.8,59.0,94,30.07,2.0,Calm,Calm,-,N/A,,Clear,0,2012-09-11 09:38:00
4:46 AM,60.8,59.0,94,30.07,7.0,Calm,Calm,-,N/A,,Clear,0,2012-09-11 09:46:00
4:53 AM,61.0,59.0,93,30.08,6.0,Calm,Calm,-,N/A,,Clear,0,2012-09-11 09:53:00
5:17 AM,60.8,57.2,88,30.08,1.8,Calm,Calm,-,N/A,,Clear,0,2012-09-11 10:17:00
5:24 AM,60.8,59.0,94,30.08,4.0,Calm,Calm,-,N/A,,Clear,0,2012-09-11 10:24:00
5:49 AM,60.8,59.0,94,30.08,2.0,Calm,Calm,-,N/A,,Clear,0,2012-09-11 10:49:00
5:53 AM,60.1,57.9,93,30.09,3.0,Calm,Calm,-,N/A,,Clear,0,2012-09-11 10:53:00
6:53 AM,60.1,57.9,93,30.11,6.0,Calm,Calm,-,N/A,,Clear,0,2012-09-11 11:53:00
7:53 AM,64.0,61.0,90,30.12,8.0,Calm,Calm,-,N/A,,Clear,0,2012-09-11 12:53:00
8:53 AM,72.0,64.0,76,30.13,10.0,Calm,Calm,-,N/A,,Clear,0,2012-09-11 13:53:00
9:53 AM,77.0,62.1,60,30.14,10.0,Calm,Calm,-,N/A,,Clear,0,2012-09-11 14:53:00
10:53 AM,82.9,59.0,44,30.15,10.0,ESE,5.8,-,N/A,,Clear,110,2012-09-11 15:53:00
11:53 AM,84.9,55.0,36,30.14,10.0,ESE,8.1,-,N/A,,Clear,120,2012-09-11 16:53:00
12:53 PM,84.9,55.9,37,30.12,9.0,East,8.1,-,N/A,,Clear,90,2012-09-11 17:53:00
1:53 PM,87.1,55.0,33,30.09,10.0,SE,10.4,-,N/A,,Clear,140,2012-09-11 18:53:00
2:53 PM,86.0,55.0,35,30.06,10.0,SE,6.9,-,N/A,,Clear,140,2012-09-11 19:53:00
3:53 PM,88.0,55.9,34,30.05,10.0,East,8.1,-,N/A,,Clear,90,2012-09-11 20:53:00
4:53 PM,86.0,55.9,36,30.05,10.0,East,6.9,-,N/A,,Clear,100,2012-09-11 21:53:00
5:53 PM,86.0,57.0,37,30.06,10.0,ESE,8.1,-,N/A,,Clear,120,2012-09-11 22:53:00
6:53 PM,82.9,57.9,42,30.06,10.0,ESE,8.1,-,N/A,,Clear,110,2012-09-11 23:53:00
7:53 PM,73.9,62.1,66,30.06,10.0,Calm,Calm,-,N/A,,Clear,0,2012-09-12 00:53:00
8:53 PM,73.0,62.1,68,30.07,10.0,Calm,Calm,-,N/A,,Clear,0,2012-09-12 01:53:00
9:53 PM,69.1,63.0,81,30.09,10.0,Calm,Calm,-,N/A,,Clear,0,2012-09-12 02:53:00
10:53 PM,68.0,63.0,84,30.09,10.0,Calm,Calm,-,N/A,,Partly Cloudy,0,2012-09-12 03:53:00
11:53 PM,68.0,64.0,87,30.08,10.0,Calm,Calm,-,N/A,,Clear,0,2012-09-12 04:53:00